Change the Weather History Date:

Friday, June 15, 2012

  Actual Average Record
Temperature  
Mean Temperature 83 °F 80 °F  
Max Temperature 92 °F 90 °F 105 °F (1911)
Min Temperature 73 °F 69 °F 53 °F (1933)
Degree Days  
Heating Degree Days 0 0  
Month to date heating degree days 0 0  
Since 1 June heating degree days 0 0  
Since 1 July heating degree days 1665 2258  
Cooling Degree Days 18 15  
Month to date cooling degree days 237 198  
Year to date cooling degree days 888 577  
Since 1 June cooling degree days 237 198  
Growing Degree Days 32 (Base 50)    
Moisture  
Dew Point 72 °F    
Average Humidity 74    
Maximum Humidity 100    
Minimum Humidity 47    
Precipitation  
Precipitation T in 0.17 in 1.66 in (1973)
Month to date precipitation 1.00 2.44  
Year to date precipitation 19.01 22.17  
Snow  
Snow 0.00 in - - ()
Month to date snowfall 0.0  
Since 1 June snowfall 0.0  
Since 1 July snowfall 0.0  
Snow Depth 0.00 in    
Sea Level Pressure  
Sea Level Pressure 29.97 in    
Wind  
Wind Speed 7 mph (SSE)    
Max Wind Speed 16 mph    
Max Gust Speed 21 mph    
Visibility 9 miles    
Events      
T = Trace of Precipitation, MM = Missing Value Source: NWS Daily Summary

Daily Weather History Graph

Daily Weather History Graph

Search for Another Location

Airport or City:

Trip Planner

Search our weather history database for the weather conditions in past years. The results will help you decide how hot, cold, wet, or windy it might be!

Date:

Astronomy

Jun. 15, 2012 Rise Set
Actual Time 6:11 AM CDT 8:27 PM CDT
Civil Twilight 5:43 AM CDT 8:56 PM CDT
Nautical Twilight 5:08 AM CDT 9:30 PM CDT
Astronomical Twilight 4:30 AM CDT 10:08 PM CDT
Moon 3:18 AM CDT (6/15) 5:14 PM CDT (6/15)
Length of Visible Light 15h 13m
Length of Day
14h 16m
Waning Crescent, 13% of the Moon is Illuminated
Jun 15
Waning Crescent
Jun 19
New
Jun 26
First Quarter
Jul 3
Full
Jul 10
Last Quarter

Hourly Weather History & Observations

Time (CDT) Temp. Heat Index Dew Point Humidity Pressure Visibility Wind Dir Wind Speed Gust Speed Precip Events Conditions
12:53 AM 75.0 °F - 71.1 °F 87% 29.93 in 10.0 mi SSE 9.2 mph - N/A   Mostly Cloudy
1:01 AM 75.2 °F - 71.6 °F 89% 29.95 in 10.0 mi SSE 8.1 mph - N/A   Scattered Clouds
1:53 AM 75.0 °F - 71.1 °F 87% 29.94 in 10.0 mi SSE 9.2 mph - N/A   Overcast
2:53 AM 75.0 °F - 72.0 °F 90% 29.95 in 10.0 mi SE 8.1 mph - N/A   Mostly Cloudy
3:53 AM 73.9 °F - 72.0 °F 93% 29.94 in 9.0 mi SSW 4.6 mph - N/A   Clear
4:53 AM 73.0 °F - 72.0 °F 96% 29.94 in 7.0 mi South 4.6 mph - N/A   Clear
5:45 AM 73.4 °F - 71.6 °F 94% 29.96 in 7.0 mi SE 8.1 mph - N/A   Scattered Clouds
5:53 AM 73.9 °F - 72.0 °F 93% 29.94 in 6.0 mi SE 6.9 mph - N/A   Mostly Cloudy
6:53 AM 73.4 °F - 73.4 °F 100% 30.01 in 4.0 mi South 3.5 mph - N/A   Overcast
7:53 AM 75.9 °F - 73.9 °F 94% 30.00 in 5.0 mi SE 3.5 mph - N/A   Overcast
8:05 AM 75.2 °F - 73.4 °F 94% 30.02 in 7.0 mi SSE 5.8 mph - N/A   Mostly Cloudy
8:20 AM 77.0 °F - 73.4 °F 89% 30.02 in 7.0 mi South 6.9 mph - N/A   Partly Cloudy
8:35 AM 78.8 °F - 73.4 °F 83% 30.02 in 8.0 mi South 6.9 mph - N/A   Mostly Cloudy
8:53 AM 78.1 °F - 73.0 °F 84% 30.01 in 9.0 mi WSW 5.8 mph - N/A   Overcast
9:29 AM 80.6 °F 85.4 °F 73.4 °F 79% 30.02 in 10.0 mi SW 9.2 mph - N/A   Mostly Cloudy
9:53 AM 82.0 °F 87.4 °F 73.0 °F 74% 30.00 in 10.0 mi South 8.1 mph - N/A   Mostly Cloudy
10:18 AM 82.4 °F 87.2 °F 71.6 °F 70% 30.02 in 10.0 mi SSW 8.1 mph - N/A   Scattered Clouds
10:53 AM 84.0 °F 90.2 °F 73.0 °F 69% 29.99 in 10.0 mi SSW 6.9 mph - N/A   Partly Cloudy
11:53 AM 87.1 °F 94.5 °F 73.0 °F 63% 29.99 in 10.0 mi South 9.2 mph 17.3 mph N/A   Partly Cloudy
12:53 PM 89.1 °F 95.0 °F 71.1 °F 55% 29.99 in 10.0 mi South 11.5 mph 16.1 mph N/A   Scattered Clouds
1:53 PM 90.0 °F 93.6 °F 68.0 °F 48% 29.97 in 10.0 mi SW 9.2 mph - N/A   Partly Cloudy
2:53 PM 91.9 °F 95.9 °F 68.0 °F 45% 29.95 in 10.0 mi South 5.8 mph - N/A   Partly Cloudy
3:53 PM 91.0 °F 96.6 °F 70.0 °F 50% 29.93 in 10.0 mi Calm Calm - N/A   Partly Cloudy
4:53 PM 91.0 °F 96.6 °F 70.0 °F 50% 29.92 in 10.0 mi SE 3.5 mph - N/A   Partly Cloudy
5:53 PM 90.0 °F 96.4 °F 71.1 °F 54% 29.92 in 10.0 mi SE 6.9 mph - N/A   Scattered Clouds
6:53 PM 84.0 °F 87.0 °F 68.0 °F 58% 29.92 in 10.0 mi East 4.6 mph - 0.00 in   Mostly Cloudy
7:53 PM 80.1 °F 82.9 °F 69.1 °F 69% 29.94 in 10.0 mi East 6.9 mph - N/A   Clear
8:53 PM 82.0 °F 86.7 °F 72.0 °F 71% 29.94 in 10.0 mi East 5.8 mph - N/A   Partly Cloudy
9:53 PM 81.0 °F 85.8 °F 73.0 °F 77% 29.97 in 10.0 mi SE 9.2 mph - N/A   Clear
10:53 PM 80.1 °F 83.8 °F 72.0 °F 76% 29.99 in 10.0 mi SSE 11.5 mph - N/A   Mostly Cloudy
11:53 PM 80.1 °F 83.8 °F 72.0 °F 76% 29.99 in 10.0 mi SE 3.5 mph - N/A   Clear